www.pogodaiklimat.ru

Погода и климат >> Архив погоды >> Россия >> Ханты-Мансийский АО >> Нижнесортымский


ПОГОДА в Нижнесортымском

  • Прогноз погоды в Нижнесортымском
  • Монитор погоды в Нижнесортымском

АРХИВ ПОГОДЫ в Нижнесортымском

Время (UTC), дата Ветер
(напр.,м/с)
 
Видим.   Явления Облачность Т
(С)
Тd
(С)
f
(%)
Тe
(С)
Тes
(С)
Комфортность P
(гПа)
Po
(гПа)
Тmin
(С)
Tmax
(С)
R
(мм)
R24
(мм)
S
(см)
06 16.08 Ю 3 20 км 10/3 600 м
[Cb cap Ci sp]
+23.5 +13.4 53 +26 +30 жарко 1014.4 1004.6
09 16.08 Ю 3 20 км 6/0
[Ci fib]
+24.9 +10.9 41 +26 +32 жарко 1013.7 1004.0
12 16.08 Ю 2 20 км 3/0
[Ci fib]
+24.8 +10.7 41 +26 +28 жарко 1013.7 1003.9
15 16.08 Ю 2 20 км 9/0
[Ac trans Ci sp]
+21.1 +12.3 57 +23 +23 комфорт 1013.8 1003.9 +25.0
18 16.08 Ю 2 20 км 8/0
[Ac trans Ci sp]
+18.5 +12.9 70 +20 +20 1014.0 1004.0
21 16.08 Ю 2 20 км 6/0
[Ci fib]
+17.3 +12.7 74 +18 +18 1013.5 1003.5
00 17.08 Ю 3 20 км 10/0
[Ac trans Ci sp]
+17.3 +12.2 72 +17 +17 1013.1 1003.0
03 17.08 Ю 2 20 км 10/4 600 м
[Cb cap Ac cuf]
+18.9 +13.2 69 +20 +21 1013.0 1003.0 +17.1
06 17.08 Ю 1 10 км слаб. ливневой дождь 10/8 600 м
[Cb cap Ac cuf]
+18.0 +15.6 86 +19 +20 1013.5 1003.5
09 17.08 ЮЗ 1 10 км слаб. ливневой дождь 10/10 600 м
[Cb cap]
+17.5 +16.4 93 +19 +19 1014.3 1004.3
12 17.08 В 1 10 км слаб. ливневой дождь 10/8 600 м
[Cb cap Ac cuf]
+16.9 +14.7 87 +18 +18 1014.6 1004.5
15 17.08 В 1 10 км слаб. ливневой дождь 10/8 600 м
[Cb cap Ac und]
+16.0 +14.3 90 +17 +17 1014.6 1004.5 +19.3 9
18 17.08 С 1 10 км слаб. ливневой дождь 10/10 300 м
[Cb cap]
+15.9 +14.9 94 +17 +17 1014.2 1004.1
21 17.08 СЗ 1 20 км в посл. час ливневой дождь 10/10 600 м
[Cb cap]
+15.9 +14.6 92 +17 +17 1014.3 1004.2
00 18.08 С 2 20 км {ливн. осадки} 4/3 600 м
[Cb cap Ac trans]
+13.8 +11.9 88 +13 +13 1015.1 1004.9
03 18.08 С 3 20 км 4/0
[Ac trans Ci sp]
+16.2 +11.7 75 +16 +18 1015.5 1005.4 +13.5 4
06 18.08 СЗ 4 20 км 8/8 600 м
[Cu hum]
+17.7 +10.4 62 +17 +19 1016.2 1006.2
09 18.08 СЗ 4 20 км 8/8 600 м
[Cb cap]
+19.0 +9.1 53 +20 +21 1017.0 1007.0
12 18.08 С 3 20 км 8/8 600 м
[Cb cap]
+17.5 +8.6 56 +18 +18 1018.6 1008.5
15 18.08 С 3 20 км 4/4 600 м
[Cb cap]
+15.1 +9.3 68 +14 +14 1020.2 1010.0 +19.6
18 18.08 СЗ 1 20 км ясно +12.0 +8.7 80 +12 +12 1021.4 1011.1
21 18.08 н/о
00 19.08 СЗ 4 20 км 10/10 600 м
[Cb cap]
+10.8 +8.2 84 +8 +8 1023.0 1012.6
03 19.08 СЗ 3 20 км 10/10 600 м
[Cb cap]
+11.2 +7.1 76 +9 +9 1023.7 1013.3 +10.5
06 19.08 С 3 20 км 10/10 600 м
[Cb cap]
+12.7 +7.2 69 +11 +11 1023.8 1013.5
09 19.08 С 5-11
{12}
20 км 10/8 600 м
[Cu med, cong Ci sp]
+15.1 +6.5 56 +14 +14 1023.2 1013.0
12 19.08 СЗ 5-10
{13}
20 км 10/6 600 м
[Cb cap Ac und]
+14.5 +6.7 59 +13 +13 1022.8 1012.6
15 19.08 С 5-10
{12}
20 км 10/5 600 м
[Cu Sc Ci sp]
+12.7 +6.5 66 +11 +11 1022.5 1012.2 +15.2
18 19.08 С 4
{11}
20 км 10/0
[Ac trans Ci sp]
+10.8 +6.4 74 +8 +8 1022.2 1011.8
21 19.08 С 4
{11}
20 км 10/6 600 м
[Sc Ac und]
+10.6 +6.9 78 +8 +8 1021.7 1011.3
00 20.08 С 4 20 км 10/10 600 м
[Cb cap]
+10.1 +7.4 83 +7 +7 1021.8 1011.4
03 20.08 С 3 20 км 10/10 600 м
[Cb cap]
+10.4 +8.0 85 +8 +8 1021.8 1011.4 +10.0
06 20.08 С 4 20 км 10/10 600 м
[Sc]
+11.0 +8.5 85 +9 +9 1022.2 1011.9
09 20.08 С 2 10 км слаб. ливневой дождь 10/10 600 м
[Cb cap]
+11.1 +9.3 89 +10 +10 1022.4 1012.0
12 20.08 С 2 4000 м дымка {ливн. осадки} 10/10 300 м
[St]
+11.4 +10.2 92 +10 +10 1022.2 1011.9
15 20.08 С 3 20 км 10/10 600 м
[Sc]
+11.7 +9.9 89 +10 +10 1022.2 1011.9 +12.1 0.0
18 20.08 С 3 20 км 10/10 600 м
[Cb cap]
+12.0 +10.1 88 +10 +10 1022.0 1011.6
21 20.08 С 2 20 км в посл. час ливневой дождь 10/10 600 м
[Cb cap]
+11.9 +10.7 92 +11 +11 1021.1 1010.8
00 21.08 С 3 20 км {ливн. осадки} 10/10 600 м
[Cb cap]
+11.9 +10.2 89 +10 +10 1020.9 1010.6
03 21.08 С 3 20 км 10/10 600 м
[Sc]
+11.8 +10.5 92 +10 +10 1021.1 1010.8 +11.6 0.0
06 21.08 С 4 20 км 10/10 600 м
[Sc]
+15.2 +12.1 82 +14 +14 1020.3 1010.1
09 21.08 С 4 20 км 8/0
[Ci fib]
+20.6 +12.7 61 +23 +27 комфорт 1019.9 1009.9
12 21.08 С 4 20 км 10/0
[Ci fib]
+21.6 +12.5 56 +24 +25 комфорт 1019.4 1009.5
15 21.08 С 2 20 км 6/0
[Ci sp]
+17.5 +13.6 78 +18 +18 1019.4 1009.3 +22.1
18 21.08 С 1 20 км ясно +13.5 +12.0 91 +14 +14 1019.3 1009.1
21 21.08 С 2 20 км ясно +11.8 +10.4 91 +11 +11 1018.8 1008.5
00 22.08 С 1 20 км ясно +8.8 +7.9 94 +8 +8 1018.5 1008.1
03 22.08 С 1 20 км ясно +14.9 +11.7 81 +15 +19 1018.0 1007.8 +8.5
06 22.08 С 2 20 км ясно +19.9 +10.1 53 +22 +30 комфорт 1017.0 1007.0
09 22.08 З 2 20 км 1/1 600 м
[Cu hum]
+21.7 +10.9 50 +24 +30 комфорт 1016.2 1006.3
12 22.08 З 1 20 км ясно +21.9 +10.4 48 +24 +26 комфорт 1015.4 1005.5
15 22.08 штиль 0 20 км 3/0
[Ac trans]
+15.2 +12.9 86 +15 +15 1014.9 1004.8 +22.2
18 22.08 З 1 20 км ясно +13.8 +11.3 85 +14 +14 1014.5 1004.3
21 22.08 ЮЗ 1 20 км 6/0
[Ac trans]
+11.6 +10.7 94 +11 +11 1013.9 1003.6
00 23.08 З 1 20 км 8/0
[Ac trans Ci fib]
+11.3 +10.5 95 +11 +11 1013.2 1003.0
03 23.08 З 1 20 км 4/0
[Ci fib]
+17.0 +13.3 79 +18 +21 1012.9 1002.9 +11.1

 

Местоположение метеостанции Нижнесортымский (Ханты-Мансийский АО, Россия): широта 62.75 долгота 71.67 высота над уровнем моря 86 м.

В архиве по умолчанию представлена погода в Нижнесортымском за последнюю неделю. Архивные данные за месяц целиком и за предыдущие месяцы, начиная с января 2011 года, Вы можете получить, выбрав интересующий диапазон дат из раскрывающегося списка и нажав кнопку "Ввод!".


*Определитесь, кто Вы:
робот инопланетянин человек

Внимание! Время в таблицах - всемирное. Для получения местного времени необходимо прибавить поправку, которая равна 5 ч.

Смотрите также архив погоды в соседних городах и на ближайших метеорологических станциях:

Погода в Юильске (Ханты-Мансийский АО, Россия) (146 км)
Погода в Когалыме (Ханты-Мансийский АО, Россия) (158 км)
Погода в Сытомино (Ханты-Мансийский АО, Россия) (162 км)
Погода в Сургуте (Ханты-Мансийский АО, Россия) (182 км)
Погода в Ноябрьске (Ямало-Ненецкий АО, Россия) (187 км)
Погода в Нефтеюганске (Ханты-Мансийский АО, Россия) (193 км)
Погода в Лонг-Югане (Ямало-Ненецкий АО, Россия) (227 км)
Погода в Ханты-Мансийске (Ханты-Мансийский АО, Россия) (233 км)
Погода в Казым-Мысе (Ханты-Мансийский АО, Россия) (247 км)
Погода в Казыме (Ханты-Мансийский АО, Россия) (247 км)

Пояснения к столбцам:

Ветер - указаны скорость ветра в м/с - средняя за 10 мин, порывы в срок и между сроками (в фигурных скобках) и направление, откуда дует ветер: С - северный, СВ - северо-восточный, В - восточный, ЮВ - юго-восточный, Ю - южный, ЮЗ - юго-западный, З - западный, СЗ - северо-западный.
Видимость - горизонтальная дальность видимости в метрах или километрах. При видимости от 1 до 10 км при отсутствии осадков обычно наблюдается дымка, при ухудшении видимости до 1 км и менее - туман. В сухую погоду видимость может ухудшаться дымом, пылью или мглою.
Явления - указаны атмосферные явления, наблюдавшиеся в срок или в последний час перед сроком; фигурными скобками обозначены явления, наблюдавшиеся между сроками (за 1-3 часа до срока); квадратными скобками обозначены град или гололедные отложения с указанием их диаметра в мм.
Облачность - указаны через наклонную черту общая и нижняя облачность в баллах и высота нижней границы облаков в метрах; квадратными скобками обозначены формы облаков: Ci - перистые, Cs - перисто-слоистые, Cc - перисто-кучевые, Ac - высококучевые, As - высокослоистые, Sc - слоисто-кучевые, Ns - слоисто-дождевые, Cu - кучевые, Cb - кучево-дождевые. Подробнее классификацию облаков см. в Атласе облаков (PDF).
T - Температура воздуха - температура, измеренная на высоте 2 м над землей.
Td - Температура точки росы - температура, при понижении до которой содержащийся в воздухе водяной пар достигнет насыщения.
f - Относительная влажность воздуха - влажноcть воздуха, измеренная на высоте 2 м над землей.
Te - Эффективная температура - температура, которую ощущает одетый по сезону человек в тени. Характеристика душности погоды. При расчете учитывается влияние влажности воздуха и скорости ветра на теплоощущения человека.
Tes - Эффективная температура на солнце - температура, которую ощущает человек, с поправкой на солнечный нагрев. Характеристика знойности погоды. Зависит от высоты солнца над горизонтом, облачности и скорости ветра. Ночью, в пасмурную погоду, а также при ветре 12 м/с и более поправка равна нулю.
P - Атмосферное давление - приведенное к уровню моря атмосферное давление.
Po - Атмосферное давление - измеренное на уровне метеостанции атмосферное давление.
Tmin - Минимальная температура - минимум температуры воздуха на высоте 2 м над землей.
Tmax - Максимальная температура - максимум температуры воздуха на высоте 2 м над землей.
R - Количество осадков - Количество выпавших осадков за период времени, мм. При наведении курсора мыши на число - период времени, за который выпало указанное количество осадков.
R24 - Количество осадков - Количество выпавших осадков за 24 часа, мм.
S - Снежный покров - Высота снежного покрова, см. При наведении курсора мыши на число - состояние снежного покрова и степень покрытия местности в баллах.